User: anonymous   Login
Location: Lake Runnemede Observatory
(43.4843°N, 72.3851°W)
Time: 17:59:30
(UTC-04:00)
Language:

SPOT 5 - Orbit

View from above orbital plane
View from above orbital plane
View from above satellite
View from above satellite

Ground track
Ground track

The orbit data is extracted from the following two-line orbital elements,

1 27421U 02021A   16238.27792018  .00000072  00000-0  27494-4 0  9996
2 27421  98.4501 294.5673 0135910 153.4894 207.3340 14.51811845742734
Epoch (UTC): 25 August 2016 06:40:12
Eccentricity: 0.0135910
inclination: 98.4501°
perigee height: 623 km
apogee height: 816 km
right ascension of ascending node: 294.5673°
argument of perigee: 153.4894°
revolutions per day: 14.51811845
mean anomaly at epoch: 207.3340°
orbit number at epoch: 74273

The dashed part of the orbit path shows where the satellite is in the earth's shadow,  

DLR